Find Starlink 32556

NORAD ID: 61858 Int'l Des: 2024-202 Owner: SPXS Country: US Constellation: starlink operational
LEOCIRCULAR

現在のビュー

3D地球を読み込み中...

About Starlink 32556

Starlink 32556 (NORAD 61858) is a starlink constellation satellite (v2 mini) launched Nov 7, 2024 by SPXS of US. It operates in LEO, CIRCULAR orbit with a mass of 730.00 kg.

Starlink 32556について

説明を読み込み中...

次回通過

Passes for default location (London). Set your location on the main map for personalized predictions.

高度履歴

Loading altitude history...

軌道要素

1 61858U 24202P 26170.98789932 -.00001118 00000-0 -31110-4 0 9992
2 61858 43.0039 20.1921 0002020 275.9953 84.0669 15.27575855 90987
Epoch: Jun 19, 2026 • Age: 35 hours

現在のステータス

高度 485.2 km
速度 7.62 km/s
衛星直下点 -12.30°S, 129.19°E
打ち上げ日 Nov 7, 2024
運用期間 1.6 years
タイプ internet

技術仕様

分類 Payload
質量 730.00 kg
乾燥質量 700.00 kg
総質量 730.00 kg
長さ 0.30 m
直径 4.10 m
スパン 29.00 m
形状 Box + pan
製造者 SPXS
バスタイプ Starlink V2M
フェーズステータス In Orbit
所有者/国 SPXS/US

Most Searched